Wind_Speed
4 5 5 6 6 7 8 9 10 10 9 8 8 6 5 4 4 3 4 4 6 7 9 9 9 7 4 2 1 1 2 3 3 3 4 5 6 6 7 7 7 6 6
4 4 5 5 6 7 8 9 10 10 10 9 9 8 7 5 4 4 4 4 4 6 7 8 8 8 6 3 0 1 1 1 1 2 3 4 4 5 5 6 6 6 5
4 4 4 5 5 6 8 9 10 10 10 10 9 9 8 7 6 6 5 5 4 5 5 6 7 6 6 4 2 1 1 1 0 1 1 2 3 3 4 4 5 5 5
5 5 5 5 6 6 7 9 10 10 11 11 10 10 10 9 9 8 8 7 7 6 6 5 5 5 5 4 3 1 0 1 1 1 1 1 2 2 2 3 4 5 6
6 6 6 6 6 7 7 8 10 11 11 12 12 12 12 12 11 11 11 10 10 10 9 8 7 6 5 4 3 2 1 1 2 2 2 2 2 2 3 4 4 6 6
6 6 6 6 7 7 8 9 10 11 12 13 14 14 15 15 15 14 14 14 13 13 12 11 10 8 7 6 5 4 2 2 2 3 3 4 4 4 4 5 6 6 7
7 7 7 8 8 9 10 11 12 13 14 15 16 17 18 18 18 18 17 17 17 17 16 15 14 12 11 10 9 8 7 6 5 5 5 6 6 6 7 7 7 8 8
9 10 10 11 12 13 14 15 16 16 17 18 19 20 21 21 22 22 21 21 20 20 19 18 18 17 15 15 14 13 12 10 9 9 8 8 8 9 9 9 10 10 10
11 13 14 15 16 17 19 19 20 21 22 22 23 24 24 24 25 25 25 25 24 23 22 21 21 20 20 19 18 17 16 15 14 13 12 12 12 12 12 12 12 12 12
15 16 18 19 20 22 23 24 25 26 27 27 27 27 27 27 28 28 28 28 27 26 25 24 23 23 23 23 22 21 20 19 18 17 16 15 15 15 15 15 15 15 15
18 19 21 22 24 25 26 28 29 29 28 29 30 31 30 31 31 31 31 31 31 30 28 26 25 25 25 25 24 24 23 22 21 20 19 19 18 18 18 19 18 18 17
22 24 24 26 27 28 29 30 31 31 30 30 31 31 32 33 34 35 34 34 34 32 30 29 27 26 26 26 26 25 25 24 23 22 22 21 20 20 20 20 21 21 20
26 27 27 28 29 30 31 31 32 33 33 32 33 33 33 34 36 37 37 37 36 34 32 30 29 27 27 26 26 25 23 23 23 23 22 22 21 21 22 22 23 23 23
28 29 29 28 29 30 31 32 33 34 34 33 33 34 35 36 37 38 40 40 38 36 33 32 30 28 27 27 26 25 23 23 23 22 21 21 22 22 23 24 24 24 25
30 31 31 31 31 31 33 32 32 32 33 34 36 36 37 38 38 40 41 41 39 37 35 33 32 31 29 28 26 25 23 22 22 22 21 21 21 22 23 23 24 23 24
31 32 33 33 34 34 35 35 34 34 34 34 35 37 38 41 41 41 41 43 41 39 37 35 34 33 31 29 27 25 23 22 22 22 22 22 21 21 22 23 23 23 23
32 33 34 35 35 36 37 36 36 35 34 34 35 36 37 40 41 41 41 42 41 39 39 37 36 34 33 31 28 27 25 24 24 23 23 23 22 21 21 22 23 24 24
32 34 35 36 38 38 38 37 38 36 35 34 34 35 37 39 39 39 39 40 41 41 40 38 37 36 34 32 30 29 27 26 25 24 24 23 22 22 22 22 23 23 23
34 36 37 39 39 39 39 39 38 36 35 34 34 35 36 36 36 35 37 38 40 41 41 39 38 36 35 33 31 30 29 28 27 25 25 24 23 22 21 21 22 22 22
37 38 40 40 41 40 40 39 37 36 36 35 35 36 33 33 31 32 36 38 40 41 40 39 38 36 35 34 33 32 30 29 27 26 26 25 24 22 21 20 19 19 20
37 38 38 39 39 38 38 38 38 37 37 36 36 35 33 29 28 30 34 38 40 40 39 39 37 36 36 35 34 32 31 30 28 27 26 25 24 22 20 18 17 16 16
35 35 36 36 37 38 38 39 39 39 39 38 38 36 33 30 28 29 31 33 36 40 40 38 36 36 35 34 34 33 32 30 29 28 27 26 25 23 21 19 17 15 14
35 35 36 37 38 39 40 40 41 41 41 40 39 37 35 34 31 30 30 32 34 35 36 36 37 36 35 34 33 32 32 31 29 28 28 27 26 24 22 20 17 16 15
36 37 38 39 40 42 42 43 43 43 43 42 41 40 39 37 35 33 32 32 34 34 34 36 36 36 34 33 33 32 32 31 30 29 29 29 28 26 23 21 19 17 16
37 39 40 41 43 44 45 45 45 45 45 44 44 43 42 41 40 38 36 35 35 36 36 37 37 37 36 35 35 34 33 32 32 31 31 30 30 28 25 23 20 18 17
38 40 41 42 43 44 45 45 46 46 46 45 45 44 44 44 43 43 42 41 40 40 39 39 39 39 38 37 37 36 35 35 34 34 34 33 32 30 28 25 22 20 18
Wind_Direction
304 300 305 309 310 313 316 316 316 316 316 314 311 309 310 320 337 353 8 19 21 22 24 25 27 30 31 15 350 9 47 65 69 77 83 86 88 91 99 114 122 123 118
313 308 314 319 317 313 311 310 310 310 310 308 303 298 297 296 302 311 322 338 353 2 9 14 19 27 32 32 340 260 283 67 84 93 93 94 97 99 103 113 123 128 127
315 316 323 331 329 320 312 308 306 305 305 304 298 291 289 288 287 287 289 299 311 328 343 356 5 15 26 33 46 205 230 226 181 126 98 99 107 111 114 125 133 136 138
315 317 325 334 335 327 317 310 304 301 301 300 297 290 288 286 284 282 281 283 286 294 304 320 337 348 2 16 33 54 199 223 224 221 194 165 141 144 151 156 160 159 157
324 327 332 338 335 326 316 307 302 298 297 298 296 292 290 288 286 284 280 279 278 279 283 289 302 314 323 330 343 7 21 255 233 232 228 218 203 192 189 190 189 185 180
326 331 330 330 325 318 310 303 300 299 299 299 297 295 293 291 288 285 281 277 275 273 273 275 280 287 293 294 293 293 290 285 261 245 240 235 229 224 214 207 205 202 196
319 321 321 320 315 310 305 301 300 299 299 298 296 295 294 292 289 285 281 276 272 270 268 268 270 272 275 275 274 275 274 272 268 259 250 244 239 236 229 221 215 211 206
309 310 309 307 304 303 300 299 297 297 296 296 295 295 294 293 291 287 282 277 272 269 267 267 266 266 266 266 266 266 267 268 264 260 256 250 245 242 237 232 225 218 213
299 300 299 299 299 298 298 297 296 295 295 294 294 293 292 291 289 287 283 279 274 270 267 265 264 262 261 261 261 262 263 263 263 260 256 252 248 246 243 239 232 225 219
294 296 296 296 297 297 296 296 296 296 295 294 292 291 289 287 285 284 281 279 275 271 267 264 263 261 260 259 259 259 259 260 261 259 256 254 251 248 245 243 239 232 226
294 296 297 297 298 298 297 297 296 295 295 295 292 289 287 285 283 281 278 276 273 270 267 264 262 262 260 259 257 256 256 255 256 257 256 254 253 250 248 245 242 239 234
295 295 297 297 298 298 297 296 296 293 292 292 292 289 286 284 282 280 276 272 270 268 265 263 261 262 261 259 257 255 254 251 253 255 256 253 252 250 250 248 245 243 239
294 296 297 297 298 298 299 298 299 296 293 291 288 287 286 285 282 278 274 270 267 265 263 261 262 262 260 259 257 255 253 251 252 254 253 251 252 252 252 251 248 245 242
293 295 296 296 297 297 298 299 298 297 293 290 289 287 287 286 282 277 272 268 264 262 260 259 259 259 258 260 260 256 252 250 250 251 251 251 252 253 253 253 250 249 248
289 291 292 293 295 298 299 300 300 298 293 289 288 288 288 286 282 275 270 265 261 260 257 256 257 257 255 258 258 256 254 251 250 249 249 252 254 255 253 253 251 252 252
286 288 289 292 293 296 298 300 298 297 294 290 289 289 287 285 281 273 267 262 258 256 254 253 253 253 253 255 255 253 252 251 251 248 248 252 253 253 253 252 251 251 253
283 285 288 289 291 294 297 298 298 297 295 292 291 290 289 287 282 271 263 258 254 254 251 250 250 251 252 252 251 251 251 249 249 249 248 250 251 251 250 251 250 249 250
283 285 287 288 290 293 295 296 297 295 293 295 295 293 291 287 279 268 259 254 251 250 250 249 249 249 251 251 250 249 248 247 247 248 248 248 248 248 248 249 249 249 249
286 287 288 290 292 293 294 295 294 293 293 295 296 298 295 288 277 262 255 251 249 247 247 248 249 249 249 249 248 248 248 246 246 247 246 246 246 247 247 246 246 248 248
289 290 290 291 292 293 294 294 293 293 293 295 296 298 299 291 275 261 254 248 248 247 247 247 247 247 247 249 249 248 248 246 245 244 244 244 244 244 243 244 243 243 245
293 294 293 293 292 292 293 292 292 292 292 293 295 296 297 292 279 267 255 249 245 245 247 247 246 246 246 248 248 247 247 246 244 242 241 240 238 237 237 237 237 239 241
298 298 297 295 294 293 292 292 291 291 291 292 293 293 290 288 283 273 260 252 248 246 245 245 242 243 245 246 247 247 245 244 241 239 236 234 233 232 231 231 233 234 237
299 299 297 296 295 294 292 291 290 290 289 288 288 287 286 284 281 276 263 257 253 248 244 243 243 242 243 245 246 245 243 241 238 236 232 230 229 229 228 229 231 235 239
299 298 298 296 295 294 293 291 290 289 287 286 285 283 281 279 275 272 268 261 255 251 247 246 243 241 241 242 243 243 241 239 236 233 230 228 227 227 228 229 231 234 238
300 299 298 297 296 295 293 292 290 289 287 285 283 280 278 275 271 268 265 261 257 253 251 249 245 243 241 240 240 239 237 236 234 231 229 227 226 226 227 228 230 233 236
300 299 298 296 295 293 292 291 290 288 287 285 283 280 277 273 270 266 262 258 255 253 250 249 248 244 242 240 238 236 234 233 232 230 229 227 226 225 226 226 228 231 235
Height
5922 5922 5921 5921 5920 5920 5919 5919 5919 5919 5918 5917 5915 5914 5913 5912 5910 5909 5908 5907 5906 5905 5905 5904 5903 5902 5901 5900 5900 5900 5899 5898 5898 5897 5897 5896 5896 5896 5895 5895 5895 5896 5896
5921 5920 5920 5920 5920 5919 5919 5918 5918 5918 5917 5916 5915 5914 5912 5911 5910 5909 5908 5907 5906 5905 5905 5904 5903 5902 5901 5901 5900 5900 5899 5899 5898 5898 5897 5897 5896 5896 5896 5896 5896 5897 5897
5920 5919 5919 5919 5918 5918 5918 5918 5917 5916 5916 5915 5914 5913 5912 5910 5909 5908 5907 5907 5906 5905 5904 5904 5903 5903 5902 5901 5900 5899 5899 5899 5899 5898 5897 5897 5896 5896 5897 5897 5897 5897 5898
5918 5917 5917 5917 5917 5917 5917 5916 5916 5915 5914 5913 5913 5912 5911 5909 5908 5907 5906 5906 5905 5904 5903 5903 5902 5902 5901 5900 5900 5899 5899 5898 5898 5897 5897 5896 5896 5896 5897 5897 5898 5898 5899
5916 5916 5915 5915 5915 5915 5915 5915 5914 5913 5913 5912 5911 5910 5909 5908 5907 5906 5905 5904 5904 5903 5902 5902 5901 5901 5901 5900 5899 5898 5898 5898 5897 5897 5897 5896 5896 5896 5897 5897 5898 5898 5899
5915 5914 5914 5913 5913 5913 5913 5913 5912 5911 5911 5910 5909 5908 5907 5906 5905 5904 5903 5902 5902 5901 5901 5900 5900 5899 5899 5899 5898 5897 5897 5897 5897 5897 5896 5896 5896 5896 5896 5897 5897 5898 5899
5914 5913 5912 5912 5912 5912 5911 5911 5910 5909 5908 5907 5906 5906 5905 5903 5902 5901 5900 5900 5899 5899 5898 5897 5897 5897 5897 5897 5896 5896 5896 5896 5896 5896 5896 5896 5896 5896 5896 5896 5897 5897 5898
5912 5912 5911 5910 5910 5910 5909 5908 5907 5906 5905 5904 5903 5902 5901 5900 5899 5898 5897 5896 5896 5895 5895 5894 5894 5894 5894 5894 5894 5894 5894 5894 5894 5894 5894 5894 5895 5895 5895 5895 5895 5896 5897
5911 5910 5909 5908 5908 5907 5906 5905 5904 5903 5901 5900 5899 5898 5897 5896 5895 5894 5893 5892 5892 5891 5891 5891 5890 5890 5890 5890 5890 5891 5891 5891 5891 5891 5892 5892 5892 5893 5893 5893 5894 5894 5895
5909 5908 5907 5906 5905 5904 5902 5901 5900 5899 5897 5896 5894 5893 5891 5890 5889 5888 5887 5887 5886 5886 5886 5886 5886 5886 5886 5886 5886 5887 5887 5887 5887 5888 5888 5889 5889 5890 5891 5891 5891 5892 5892
5907 5905 5904 5903 5901 5900 5898 5897 5895 5893 5892 5890 5888 5886 5885 5884 5882 5882 5881 5881 5880 5880 5880 5880 5881 5881 5880 5881 5881 5881 5882 5882 5882 5883 5884 5885 5885 5886 5887 5888 5888 5889 5889
5904 5902 5901 5899 5898 5896 5894 5892 5890 5888 5886 5884 5882 5880 5878 5877 5875 5874 5874 5873 5873 5873 5874 5874 5874 5874 5875 5875 5875 5875 5876 5877 5877 5878 5879 5880 5881 5882 5882 5883 5884 5885 5886
5899 5898 5897 5895 5894 5892 5890 5888 5885 5882 5880 5878 5875 5873 5871 5869 5868 5866 5865 5865 5865 5865 5866 5867 5868 5868 5869 5869 5869 5869 5870 5871 5872 5873 5874 5875 5876 5877 5878 5878 5879 5881 5882
5895 5893 5892 5890 5888 5886 5884 5882 5879 5876 5873 5870 5867 5865 5863 5861 5859 5857 5856 5856 5856 5857 5859 5860 5861 5862 5862 5862 5862 5863 5864 5865 5867 5868 5869 5870 5871 5872 5872 5873 5874 5875 5877
5890 5888 5886 5884 5882 5880 5878 5875 5872 5869 5866 5863 5860 5857 5854 5852 5850 5848 5847 5847 5848 5849 5851 5853 5854 5855 5856 5856 5856 5857 5858 5859 5861 5862 5863 5864 5865 5866 5867 5868 5869 5870 5871
5885 5882 5880 5878 5875 5873 5870 5867 5865 5862 5858 5855 5851 5848 5845 5842 5840 5838 5838 5838 5839 5840 5842 5844 5846 5848 5849 5850 5850 5851 5852 5853 5855 5856 5858 5859 5860 5861 5862 5863 5864 5865 5866
5878 5876 5874 5871 5868 5866 5863 5860 5857 5853 5850 5846 5842 5839 5835 5831 5829 5828 5827 5829 5831 5832 5834 5836 5838 5840 5841 5843 5844 5844 5846 5847 5849 5850 5851 5853 5854 5855 5856 5857 5858 5859 5861
5872 5869 5867 5864 5861 5858 5855 5852 5848 5845 5842 5838 5834 5830 5825 5821 5818 5817 5817 5819 5822 5823 5825 5828 5830 5832 5834 5835 5836 5837 5839 5840 5842 5844 5845 5847 5848 5850 5851 5852 5853 5854 5855
5865 5862 5859 5856 5853 5850 5846 5843 5840 5836 5833 5829 5825 5821 5816 5812 5808 5807 5809 5811 5813 5814 5817 5819 5822 5823 5825 5827 5829 5831 5832 5834 5836 5838 5839 5841 5842 5844 5845 5847 5848 5849 5850
5856 5853 5850 5847 5844 5841 5837 5834 5831 5828 5825 5821 5817 5813 5808 5803 5800 5799 5801 5802 5804 5806 5808 5811 5814 5816 5818 5820 5822 5824 5826 5827 5829 5831 5833 5834 5836 5838 5840 5842 5843 5844 5846
5848 5844 5840 5837 5834 5831 5828 5825 5822 5819 5816 5812 5809 5805 5801 5797 5794 5793 5793 5794 5795 5798 5801 5803 5806 5808 5810 5812 5815 5817 5819 5820 5822 5824 5826 5828 5831 5833 5835 5837 5838 5840 5842
5839 5835 5831 5828 5825 5822 5819 5815 5812 5809 5806 5803 5800 5797 5794 5791 5789 5787 5786 5785 5787 5790 5792 5794 5797 5800 5802 5804 5807 5809 5811 5814 5815 5817 5820 5823 5825 5828 5830 5832 5834 5836 5837
5831 5827 5823 5819 5816 5812 5809 5806 5802 5799 5796 5794 5791 5788 5786 5784 5782 5781 5780 5780 5781 5782 5783 5786 5788 5791 5793 5796 5798 5801 5804 5806 5808 5812 5814 5817 5820 5822 5825 5827 5830 5832 5834
5823 5819 5815 5810 5806 5802 5798 5795 5792 5788 5785 5783 5780 5778 5777 5775 5774 5773 5773 5772 5773 5774 5775 5777 5779 5781 5784 5787 5790 5793 5796 5798 5802 5805 5808 5811 5814 5817 5819 5822 5824 5827 5829
5815 5810 5806 5801 5796 5792 5787 5783 5780 5776 5773 5771 5768 5767 5766 5764 5764 5763 5763 5763 5764 5765 5766 5768 5770 5772 5775 5778 5781 5784 5787 5791 5794 5797 5801 5804 5808 5811 5814 5817 5819 5822 5825
5807 5802 5797 5792 5787 5781 5777 5772 5768 5764 5761 5758 5756 5754 5753 5752 5752 5751 5752 5753 5753 5754 5756 5758 5761 5763 5765 5768 5771 5775 5778 5782 5786 5790 5793 5797 5801 5805 5808 5811 5814 5817 5820